LPA502 UGTB-ULLI

Flight info

Callsign LPA502
Flight time 2h 56m
Altitude 40000
Route LAPTO N82 RINGU N50 NUDKO T561 ODATI T875 GENPA GENPA1B
Aircraft MD11/H-SDE1E2E3FGHIJ2J3J4J5M1RWXY/LB1D1

Departure

Time 2026-04-23 17:31
Airport Tbilisi International Airport (UGTB)

Arrival

Time 2026-04-23 20:28
Airport Pulkovo Airport (ULLI)
Time Latitude Longitude Altitude Speed Heading
2026-04-23 16:39 41.66844 44.96094 1534 ft 0 kts 224°
2026-04-23 17:18 41.66854 44.96106 1534 ft 3 kts 220°
2026-04-23 17:18 41.66870 44.96123 1540 ft 3 kts 211°
2026-04-23 17:18 41.66888 44.96135 1521 ft 3 kts 196°
2026-04-23 17:19 41.66906 44.96139 1525 ft 3 kts 166°
2026-04-23 17:19 41.66920 44.96131 1528 ft 1 kts 123°
2026-04-23 17:19 41.66921 44.96128 1529 ft 4 kts 120°
2026-04-23 17:23 41.66918 44.96135 1534 ft 3 kts 121°
2026-04-23 17:24 41.66897 44.96176 1526 ft 7 kts 128°
2026-04-23 17:24 41.66870 44.96219 1527 ft 5 kts 129°
2026-04-23 17:24 41.66819 44.96293 1527 ft 7 kts 133°
2026-04-23 17:25 41.66734 44.96405 1525 ft 10 kts 147°
2026-04-23 17:25 41.66663 44.96419 1530 ft 11 kts 189°
2026-04-23 17:26 41.66514 44.96377 1531 ft 13 kts 193°
2026-04-23 17:26 41.66312 44.96309 1530 ft 14 kts 194°
2026-04-23 17:27 41.66142 44.96345 1529 ft 11 kts 146°
2026-04-23 17:27 41.66087 44.96409 1526 ft 10 kts 138°
2026-04-23 17:27 41.66042 44.96465 1530 ft 8 kts 136°
2026-04-23 17:27 41.66001 44.96517 1526 ft 10 kts 136°
2026-04-23 17:28 41.65939 44.96586 1527 ft 12 kts 150°
2026-04-23 17:28 41.65889 44.96593 1528 ft 0 kts 192°
2026-04-23 17:28 41.65886 44.96591 1530 ft 2 kts 196°
2026-04-23 17:28 41.65863 44.96568 1525 ft 6 kts 223°
2026-04-23 17:29 41.65843 44.96493 1529 ft 11 kts 270°
2026-04-23 17:29 41.65866 44.96428 1528 ft 0 kts 314°
2026-04-23 17:30 41.66080 44.96161 1525 ft 84 kts 317°
2026-04-23 17:30 41.66726 44.95351 1526 ft 170 kts 316°
2026-04-23 17:31 41.67710 44.94097 1888 ft 211 kts 315°
2026-04-23 17:31 41.68791 44.92613 2606 ft 230 kts 312°
2026-04-23 17:31 41.69906 44.90980 3375 ft 244 kts 311°
2026-04-23 17:31 41.71001 44.89223 4209 ft 240 kts 311°
2026-04-23 17:32 41.72128 44.87809 5722 ft 201 kts 316°
2026-04-23 17:32 41.73325 44.86716 6521 ft 225 kts 328°
2026-04-23 17:32 41.74846 44.85698 6684 ft 264 kts 331°
2026-04-23 17:32 41.76588 44.84561 7203 ft 284 kts 330°
2026-04-23 17:33 41.78368 44.83364 8244 ft 287 kts 328°
2026-04-23 17:33 41.80141 44.82130 9358 ft 288 kts 325°
2026-04-23 17:33 41.81920 44.80853 10276 ft 295 kts 324°
2026-04-23 17:33 41.83816 44.79447 10466 ft 329 kts 324°
2026-04-23 17:34 41.85912 44.77868 10686 ft 357 kts 325°
2026-04-23 17:34 41.88104 44.76226 11607 ft 363 kts 325°
2026-04-23 17:34 41.92576 44.72871 13488 ft 372 kts 324°
2026-04-23 17:35 41.94845 44.71158 14323 ft 376 kts 324°
2026-04-23 17:35 41.98650 44.68274 15659 ft 381 kts 324°
2026-04-23 17:35 42.01759 44.65910 16698 ft 385 kts 324°
2026-04-23 17:36 42.04101 44.64127 17460 ft 389 kts 324°
2026-04-23 17:36 42.06467 44.62323 18199 ft 392 kts 324°
2026-04-23 17:36 42.08847 44.60506 18839 ft 395 kts 324°
2026-04-23 17:36 42.11241 44.58678 19501 ft 397 kts 324°
2026-04-23 17:37 42.13647 44.56838 20125 ft 399 kts 324°
2026-04-23 17:37 42.16073 44.54982 20756 ft 402 kts 323°
2026-04-23 17:37 42.20948 44.51247 21893 ft 410 kts 323°
2026-04-23 17:38 42.23441 44.49333 22486 ft 414 kts 323°
2026-04-23 17:38 42.25953 44.47402 23056 ft 418 kts 322°
2026-04-23 17:38 42.28489 44.45453 23676 ft 420 kts 323°
2026-04-23 17:38 42.31034 44.43496 24353 ft 422 kts 322°
2026-04-23 17:39 42.33591 44.41528 25029 ft 424 kts 322°
2026-04-23 17:39 42.36160 44.39546 25629 ft 427 kts 322°
2026-04-23 17:39 42.38751 44.37546 26250 ft 429 kts 322°
2026-04-23 17:39 42.41340 44.35547 26866 ft 431 kts 322°
2026-04-23 17:40 42.43955 44.33524 27435 ft 433 kts 321°
2026-04-23 17:40 42.46579 44.31483 28013 ft 436 kts 321°
2026-04-23 17:40 42.49214 44.29427 28562 ft 439 kts 321°
2026-04-23 17:40 42.51864 44.27360 29158 ft 441 kts 321°
2026-04-23 17:41 42.54532 44.25282 29734 ft 444 kts 321°
2026-04-23 17:41 42.59927 44.21083 30660 ft 449 kts 320°
2026-04-23 17:41 42.62736 44.19162 31218 ft 458 kts 327°
2026-04-23 17:42 42.68960 44.16773 32340 ft 469 kts 337°
2026-04-23 17:42 42.72165 44.15886 32899 ft 469 kts 338°
2026-04-23 17:42 42.75364 44.15025 33389 ft 469 kts 338°
2026-04-23 17:43 42.78554 44.14141 34003 ft 466 kts 336°
2026-04-23 17:43 42.81716 44.13228 34427 ft 465 kts 337°
2026-04-23 17:43 42.84877 44.12285 34780 ft 464 kts 337°
2026-04-23 17:43 42.88020 44.11330 35114 ft 463 kts 338°
2026-04-23 17:44 42.91161 44.10367 35469 ft 463 kts 338°
2026-04-23 17:44 42.94301 44.09400 35758 ft 463 kts 338°
2026-04-23 17:44 43.00587 44.07463 36424 ft 463 kts 339°
2026-04-23 17:45 43.03730 44.06494 36731 ft 463 kts 339°
2026-04-23 17:45 43.10026 44.04554 37268 ft 464 kts 340°
2026-04-23 17:45 43.13177 44.03582 37557 ft 464 kts 340°
2026-04-23 17:46 43.18414 44.01956 37973 ft 465 kts 340°
2026-04-23 17:46 43.21567 44.00973 38195 ft 467 kts 340°
2026-04-23 17:46 43.24743 43.99981 38379 ft 469 kts 340°
2026-04-23 17:47 43.27927 43.98988 38558 ft 469 kts 341°
2026-04-23 17:47 43.31115 43.97994 38734 ft 470 kts 341°
2026-04-23 17:47 43.37496 43.96003 39045 ft 471 kts 341°
2026-04-23 17:48 43.40695 43.95004 39189 ft 471 kts 341°
2026-04-23 17:48 43.43896 43.94002 39354 ft 472 kts 341°
2026-04-23 17:48 43.47061 43.93011 39459 ft 474 kts 341°
2026-04-23 17:48 43.50324 43.91989 39578 ft 475 kts 341°
2026-04-23 17:49 43.53494 43.90997 39762 ft 474 kts 341°
2026-04-23 17:49 43.60009 43.88954 39843 ft 478 kts 341°
2026-04-23 17:50 43.66454 43.86931 39855 ft 478 kts 341°
2026-04-23 17:50 43.76234 43.83852 39865 ft 478 kts 341°
2026-04-23 17:51 43.82730 43.81800 39862 ft 479 kts 341°
2026-04-23 17:52 43.92441 43.78728 39868 ft 480 kts 341°
2026-04-23 17:52 44.02208 43.75640 39868 ft 480 kts 341°
2026-04-23 17:53 44.11984 43.72541 39881 ft 480 kts 341°
2026-04-23 17:54 44.18494 43.70471 39881 ft 480 kts 341°
2026-04-23 17:54 44.28255 43.67358 39882 ft 480 kts 341°
2026-04-23 17:55 44.38017 43.64240 39888 ft 480 kts 341°
2026-04-23 17:56 44.44528 43.62155 39884 ft 479 kts 341°
2026-04-23 17:56 44.54280 43.59025 39884 ft 479 kts 341°
2026-04-23 17:57 44.60789 43.56934 39889 ft 480 kts 341°
2026-04-23 17:58 44.70564 43.53788 39879 ft 481 kts 341°
2026-04-23 17:58 44.77090 43.51681 39879 ft 481 kts 341°
2026-04-23 17:59 44.83624 43.49570 39878 ft 482 kts 341°
2026-04-23 17:59 44.90166 43.47456 39872 ft 483 kts 341°
2026-04-23 18:00 44.96715 43.45336 39868 ft 483 kts 341°
2026-04-23 18:00 45.03263 43.43211 39867 ft 483 kts 341°
2026-04-23 18:01 45.09830 43.41094 39859 ft 484 kts 342°
2026-04-23 18:01 45.16415 43.39057 39855 ft 484 kts 342°
2026-04-23 18:02 45.23004 43.37040 39851 ft 484 kts 342°
2026-04-23 18:02 45.29591 43.35015 39856 ft 484 kts 342°
2026-04-23 18:03 45.36180 43.32978 39842 ft 484 kts 342°
2026-04-23 18:03 45.42766 43.30937 39837 ft 485 kts 342°
2026-04-23 18:04 45.49357 43.28892 39833 ft 485 kts 342°
2026-04-23 18:04 45.55943 43.26850 39833 ft 484 kts 342°
2026-04-23 18:05 45.62533 43.24804 39826 ft 485 kts 342°
2026-04-23 18:05 45.69124 43.22754 39815 ft 485 kts 342°
2026-04-23 18:06 45.75720 43.20727 39816 ft 485 kts 343°
2026-04-23 18:06 45.82344 43.18799 39807 ft 486 kts 343°
2026-04-23 18:07 45.89001 43.17066 39979 ft 486 kts 346°
2026-04-23 18:07 45.92309 43.16457 40240 ft 484 kts 349°
2026-04-23 18:07 45.95662 43.16096 40526 ft 483 kts 353°
2026-04-23 18:07 45.99020 43.16042 40769 ft 483 kts 357°
2026-04-23 18:08 46.01288 43.16201 40917 ft 483 kts
2026-04-23 18:08 46.05709 43.17005 41153 ft 484 kts
2026-04-23 18:08 46.09084 43.17382 40771 ft 488 kts 353°
2026-04-23 18:08 46.12429 43.16780 40413 ft 483 kts 341°
2026-04-23 18:09 46.15588 43.15276 40058 ft 476 kts 330°
2026-04-23 18:09 46.18530 43.13156 39871 ft 471 kts 325°
2026-04-23 18:09 46.21372 43.10803 39803 ft 471 kts 324°
2026-04-23 18:10 46.27253 43.06524 39805 ft 479 kts 334°
2026-04-23 18:10 46.33689 43.03759 39787 ft 486 kts 342°
2026-04-23 18:11 46.40329 43.01784 39779 ft 488 kts 344°
2026-04-23 18:11 46.46998 42.99926 39777 ft 488 kts 344°
2026-04-23 18:12 46.53656 42.98011 39788 ft 488 kts 343°
2026-04-23 18:12 46.60311 42.96055 39774 ft 488 kts 343°
2026-04-23 18:13 46.66967 42.94087 39769 ft 488 kts 343°
2026-04-23 18:13 46.73618 42.92117 39768 ft 488 kts 343°
2026-04-23 18:14 46.80271 42.90142 39776 ft 488 kts 344°
2026-04-23 18:14 46.86922 42.88164 39777 ft 488 kts 344°
2026-04-23 18:15 46.93576 42.86179 39762 ft 488 kts 344°
2026-04-23 18:15 47.00188 42.84203 39757 ft 488 kts 344°
2026-04-23 18:16 47.06840 42.82200 39765 ft 488 kts 344°
2026-04-23 18:16 47.13485 42.80192 39752 ft 487 kts 344°
2026-04-23 18:17 47.23452 42.77189 39744 ft 488 kts 344°
2026-04-23 18:17 47.30099 42.75188 39759 ft 488 kts 344°
2026-04-23 18:18 47.36744 42.73183 39743 ft 487 kts 344°
2026-04-23 18:18 47.43385 42.71173 39730 ft 487 kts 344°
2026-04-23 18:19 47.50026 42.69160 39729 ft 487 kts 344°
2026-04-23 18:19 47.56668 42.67145 39736 ft 487 kts 344°
2026-04-23 18:20 47.63311 42.65126 39723 ft 487 kts 344°
2026-04-23 18:20 47.69946 42.63104 39722 ft 487 kts 344°
2026-04-23 18:21 47.76583 42.61076 39716 ft 487 kts 344°
2026-04-23 18:21 47.83226 42.59040 39728 ft 487 kts 345°
2026-04-23 18:22 47.89868 42.57000 39713 ft 487 kts 345°
2026-04-23 18:22 47.96514 42.54954 39700 ft 488 kts 345°
2026-04-23 18:23 48.06481 42.51874 39693 ft 488 kts 344°
2026-04-23 18:24 48.16393 42.48800 39688 ft 487 kts 345°
2026-04-23 18:25 48.26295 42.45452 39681 ft 485 kts 341°
2026-04-23 18:25 48.32746 42.42545 39681 ft 484 kts 339°
2026-04-23 18:26 48.39175 42.39537 39679 ft 484 kts 339°
2026-04-23 18:26 48.45609 42.36566 39675 ft 484 kts 339°
2026-04-23 18:27 48.52047 42.33617 39675 ft 484 kts 340°
2026-04-23 18:27 48.58491 42.30663 39667 ft 485 kts 340°
2026-04-23 18:28 48.64946 42.27693 39665 ft 485 kts 340°
2026-04-23 18:28 48.71398 42.24724 39660 ft 485 kts 340°
2026-04-23 18:29 48.77850 42.21750 39656 ft 485 kts 340°
2026-04-23 18:29 48.84299 42.18770 39656 ft 485 kts 339°
2026-04-23 18:30 48.90683 42.15811 39656 ft 484 kts 340°
2026-04-23 18:30 48.97128 42.12818 39641 ft 484 kts 340°
2026-04-23 18:31 49.03582 42.09855 39640 ft 485 kts 342°
2026-04-23 18:31 49.10239 42.07914 39639 ft 489 kts 349°
2026-04-23 18:32 49.15842 42.06791 39640 ft 488 kts 350°
2026-04-23 18:32 49.22582 42.05459 39628 ft 488 kts 349°
2026-04-23 18:33 49.29308 42.04044 39625 ft 488 kts 349°
2026-04-23 18:33 49.36035 42.02589 39616 ft 488 kts 349°
2026-04-23 18:34 49.42755 42.01126 39618 ft 488 kts 349°
2026-04-23 18:34 49.49468 41.99664 39606 ft 487 kts 349°
2026-04-23 18:35 49.56181 41.98199 39603 ft 487 kts 349°
2026-04-23 18:35 49.62894 41.96730 39601 ft 488 kts 349°
2026-04-23 18:36 49.69614 41.95256 39583 ft 488 kts 349°
2026-04-23 18:36 49.76333 41.93778 39587 ft 487 kts 349°
2026-04-23 18:37 49.83047 41.92297 39583 ft 487 kts 349°
2026-04-23 18:37 49.89752 41.90808 39570 ft 487 kts 349°
2026-04-23 18:38 49.96418 41.89320 39568 ft 487 kts 349°
2026-04-23 18:38 50.03177 41.87812 39570 ft 487 kts 349°
2026-04-23 18:39 50.09835 41.86327 39564 ft 487 kts 349°
2026-04-23 18:39 50.16537 41.84828 39554 ft 487 kts 349°
2026-04-23 18:40 50.23203 41.83056 39555 ft 485 kts 346°
2026-04-23 18:40 50.29797 41.80801 39543 ft 485 kts 345°
2026-04-23 18:41 50.36385 41.78476 39536 ft 485 kts 345°
2026-04-23 18:41 50.42972 41.76185 39535 ft 485 kts 345°
2026-04-23 18:42 50.49567 41.73908 39527 ft 485 kts 345°
2026-04-23 18:42 50.56162 41.71628 39526 ft 485 kts 345°
2026-04-23 18:43 50.62753 41.69342 39523 ft 485 kts 345°
2026-04-23 18:43 50.69348 41.67042 39517 ft 485 kts 345°
2026-04-23 18:44 50.75945 41.64729 39506 ft 485 kts 345°
2026-04-23 18:44 50.82538 41.62415 39498 ft 485 kts 345°
2026-04-23 18:45 50.89136 41.60096 39513 ft 485 kts 345°
2026-04-23 18:45 50.95721 41.57776 39493 ft 485 kts 345°
2026-04-23 18:46 51.02312 41.55447 39490 ft 485 kts 345°
2026-04-23 18:46 51.08857 41.53127 39489 ft 485 kts 345°
2026-04-23 18:47 51.15443 41.50786 39487 ft 485 kts 345°
2026-04-23 18:47 51.22024 41.48439 39480 ft 484 kts 345°
2026-04-23 18:48 51.28602 41.46087 39479 ft 484 kts 345°
2026-04-23 18:48 51.35178 41.43729 39482 ft 485 kts 345°
2026-04-23 18:49 51.41760 41.41361 39473 ft 485 kts 345°
2026-04-23 18:49 51.48340 41.38985 39475 ft 484 kts 345°
2026-04-23 18:50 51.53804 41.36994 39470 ft 484 kts 345°
2026-04-23 18:50 51.61490 41.34193 39467 ft 484 kts 345°
2026-04-23 18:51 51.67983 41.31405 39461 ft 481 kts 335°
2026-04-23 18:51 51.73684 41.25942 39465 ft 476 kts 321°
2026-04-23 18:52 51.78955 41.19449 39455 ft 477 kts 321°
2026-04-23 18:52 51.84286 41.13041 39450 ft 478 kts 322°
2026-04-23 18:53 51.89687 41.06775 39450 ft 478 kts 322°
2026-04-23 18:53 51.95106 41.00542 39442 ft 478 kts 322°
2026-04-23 18:54 52.00529 40.94285 39435 ft 478 kts 323°
2026-04-23 18:54 52.06080 40.88297 39433 ft 480 kts 327°
2026-04-23 18:55 52.11879 40.82920 39430 ft 480 kts 329°
2026-04-23 18:55 52.17720 40.77634 39431 ft 480 kts 329°
2026-04-23 18:56 52.22563 40.73198 39422 ft 480 kts 329°
2026-04-23 18:56 52.29361 40.66905 39416 ft 481 kts 329°
2026-04-23 18:57 52.35176 40.61488 39412 ft 481 kts 328°
2026-04-23 18:57 52.40994 40.56046 39412 ft 481 kts 328°
2026-04-23 18:58 52.46775 40.50636 39414 ft 482 kts 329°
2026-04-23 18:58 52.52600 40.45186 39409 ft 482 kts 329°
2026-04-23 18:59 52.58428 40.39741 39405 ft 482 kts 329°
2026-04-23 18:59 52.64256 40.34288 39406 ft 482 kts 329°
2026-04-23 19:00 52.70082 40.28821 39406 ft 482 kts 329°
2026-04-23 19:00 52.75898 40.23346 39407 ft 482 kts 329°
2026-04-23 19:01 52.81718 40.17848 39402 ft 482 kts 329°
2026-04-23 19:01 52.87527 40.12316 39386 ft 482 kts 328°
2026-04-23 19:02 52.92395 40.07667 39399 ft 482 kts 329°
2026-04-23 19:02 52.99139 40.01221 39394 ft 481 kts 329°
2026-04-23 19:03 53.04940 39.95662 39399 ft 481 kts 329°
2026-04-23 19:03 53.10735 39.90092 39390 ft 481 kts 329°
2026-04-23 19:04 53.16533 39.84502 39407 ft 481 kts 329°
2026-04-23 19:04 53.22322 39.78901 39386 ft 481 kts 329°
2026-04-23 19:05 53.28054 39.73339 39392 ft 481 kts 328°
2026-04-23 19:05 53.33838 39.67708 39394 ft 482 kts 328°
2026-04-23 19:06 53.39644 39.62092 39397 ft 482 kts 330°
2026-04-23 19:06 53.45583 39.56876 39392 ft 481 kts 332°
2026-04-23 19:07 53.51567 39.51848 39393 ft 481 kts 332°
2026-04-23 19:07 53.57545 39.46807 39396 ft 481 kts 332°
2026-04-23 19:08 53.63514 39.41728 39394 ft 481 kts 332°
2026-04-23 19:08 53.69481 39.36624 39398 ft 480 kts 332°
2026-04-23 19:09 53.75386 39.31557 39394 ft 479 kts 332°
2026-04-23 19:09 53.81326 39.26443 39396 ft 480 kts 332°
2026-04-23 19:10 53.87274 39.21302 39395 ft 480 kts 332°
2026-04-23 19:10 53.93216 39.16119 39398 ft 480 kts 332°
2026-04-23 19:11 53.99161 39.10930 39402 ft 480 kts 332°
2026-04-23 19:11 54.05106 39.05737 39401 ft 480 kts 332°
2026-04-23 19:12 54.10084 39.01379 39402 ft 480 kts 332°
2026-04-23 19:12 54.16988 38.95316 39403 ft 480 kts 332°
2026-04-23 19:13 54.22889 38.90011 39405 ft 477 kts 327°
2026-04-23 19:13 54.28088 38.83072 39408 ft 474 kts 317°
2026-04-23 19:14 54.32888 38.75305 39413 ft 475 kts 315°
2026-04-23 19:14 54.37700 38.67526 39417 ft 477 kts 316°
2026-04-23 19:15 54.42577 38.59799 39422 ft 477 kts 317°
2026-04-23 19:15 54.47455 38.52110 39418 ft 476 kts 317°
2026-04-23 19:16 54.52325 38.44414 39418 ft 475 kts 317°
2026-04-23 19:16 54.57171 38.36722 39420 ft 474 kts 316°
2026-04-23 19:17 54.64409 38.25182 39426 ft 474 kts 317°
2026-04-23 19:17 54.69238 38.17447 39425 ft 472 kts 317°
2026-04-23 19:18 54.74026 38.09716 39434 ft 470 kts 316°
2026-04-23 19:18 54.78026 38.03220 39435 ft 471 kts 316°
2026-04-23 19:19 54.85218 37.91564 39445 ft 470 kts 317°
2026-04-23 19:20 54.92384 37.79922 39453 ft 472 kts 317°
2026-04-23 19:20 54.97169 37.72115 39452 ft 469 kts 317°
2026-04-23 19:21 55.04297 37.60431 39460 ft 471 kts 317°
2026-04-23 19:22 55.09048 37.52611 39466 ft 468 kts 317°
2026-04-23 19:22 55.16139 37.40805 39477 ft 470 kts 316°
2026-04-23 19:23 55.20882 37.32897 39490 ft 471 kts 316°
2026-04-23 19:24 55.27928 37.21133 39490 ft 466 kts 317°
2026-04-23 19:24 55.34953 37.09347 39497 ft 468 kts 317°
2026-04-23 19:25 55.44320 36.93540 39511 ft 464 kts 317°
2026-04-23 19:26 55.51312 36.81703 39526 ft 465 kts 319°
2026-04-23 19:27 55.64196 36.64621 39540 ft 464 kts 325°
2026-04-23 19:28 55.74646 36.51210 39567 ft 462 kts 325°
2026-04-23 19:29 55.82433 36.41092 39570 ft 463 kts 325°
2026-04-23 19:30 55.90241 36.30897 39581 ft 464 kts 324°
2026-04-23 19:31 55.98013 36.20697 39593 ft 461 kts 325°
2026-04-23 19:31 56.03169 36.13903 39594 ft 460 kts 325°
2026-04-23 19:32 56.08315 36.07098 39585 ft 460 kts 325°
2026-04-23 19:32 56.13452 36.00260 39595 ft 460 kts 325°
2026-04-23 19:33 56.18598 35.93428 39600 ft 460 kts 325°
2026-04-23 19:33 56.26319 35.83173 39617 ft 460 kts 325°
2026-04-23 19:34 56.31465 35.76321 39604 ft 460 kts 325°
2026-04-23 19:35 56.39177 35.66016 39622 ft 460 kts 325°
2026-04-23 19:35 56.44310 35.59126 39623 ft 458 kts 325°
2026-04-23 19:36 56.49411 35.52258 39629 ft 457 kts 325°
2026-04-23 19:36 56.54466 35.45427 39638 ft 456 kts 325°
2026-04-23 19:37 56.59539 35.38499 39637 ft 457 kts 324°
2026-04-23 19:37 56.64588 35.31498 39651 ft 457 kts 324°
2026-04-23 19:38 56.69630 35.24497 39638 ft 454 kts 325°
2026-04-23 19:38 56.74647 35.17524 39662 ft 454 kts 325°
2026-04-23 19:39 56.79661 35.10538 39664 ft 453 kts 325°
2026-04-23 19:39 56.84669 35.03535 39674 ft 453 kts 325°
2026-04-23 19:40 56.89693 34.96567 39676 ft 453 kts 327°
2026-04-23 19:40 56.94885 34.90122 39676 ft 449 kts 329°
2026-04-23 19:41 57.00133 34.83892 39681 ft 450 kts 329°
2026-04-23 19:41 57.05383 34.77630 39690 ft 450 kts 329°
2026-04-23 19:42 57.10624 34.71323 39688 ft 450 kts 329°
2026-04-23 19:42 57.15861 34.64987 39698 ft 450 kts 329°
2026-04-23 19:43 57.21081 34.58646 39684 ft 448 kts 329°
2026-04-23 19:43 57.26277 34.52316 39698 ft 447 kts 329°
2026-04-23 19:44 57.31468 34.45970 39698 ft 447 kts 329°
2026-04-23 19:44 57.36657 34.39605 39711 ft 447 kts 329°
2026-04-23 19:45 57.41808 34.33264 39703 ft 447 kts 329°
2026-04-23 19:45 57.46982 34.26872 39712 ft 446 kts 329°
2026-04-23 19:46 57.52137 34.20483 39722 ft 446 kts 329°
2026-04-23 19:46 57.57297 34.14067 39720 ft 446 kts 329°
2026-04-23 19:47 57.61570 34.08687 39715 ft 446 kts 329°
2026-04-23 19:47 57.67582 34.01090 39730 ft 446 kts 329°
2026-04-23 19:48 57.72720 33.94615 39717 ft 444 kts 329°
2026-04-23 19:48 57.77836 33.88162 39732 ft 443 kts 329°
2026-04-23 19:49 57.82941 33.81703 39730 ft 443 kts 329°
2026-04-23 19:49 57.88032 33.75185 39736 ft 443 kts 327°
2026-04-23 19:50 57.92913 33.68061 39732 ft 445 kts 324°
2026-04-23 19:50 57.97707 33.60673 39728 ft 443 kts 324°
2026-04-23 19:51 58.02474 33.53331 39738 ft 442 kts 324°
2026-04-23 19:51 58.07209 33.46065 39756 ft 442 kts 324°
2026-04-23 19:52 58.11212 33.39915 39745 ft 443 kts 324°
2026-04-23 19:52 58.16724 33.31413 39744 ft 431 kts 324°
2026-04-23 19:53 58.21332 33.24249 39365 ft 424 kts 325°
2026-04-23 19:53 58.23620 33.20691 38534 ft 426 kts 325°
2026-04-23 19:53 58.25906 33.17139 37684 ft 423 kts 325°
2026-04-23 19:53 58.28188 33.13592 36696 ft 424 kts 325°
2026-04-23 19:54 58.30466 33.10049 35811 ft 422 kts 325°
2026-04-23 19:54 58.32729 33.06521 34939 ft 420 kts 325°
2026-04-23 19:54 58.34981 33.03006 34093 ft 418 kts 326°
2026-04-23 19:54 58.37223 32.99499 33134 ft 415 kts 326°
2026-04-23 19:55 58.39446 32.96017 32137 ft 413 kts 326°
2026-04-23 19:55 58.41654 32.92552 31124 ft 409 kts 326°
2026-04-23 19:55 58.43841 32.89109 30126 ft 406 kts 327°
2026-04-23 19:55 58.46007 32.85679 28973 ft 402 kts 327°
2026-04-23 19:56 58.48148 32.82283 27692 ft 399 kts 327°
2026-04-23 19:56 58.50291 32.78892 26255 ft 396 kts 326°
2026-04-23 19:56 58.52393 32.75556 24656 ft 386 kts 326°
2026-04-23 19:56 58.54434 32.72309 22813 ft 377 kts 326°
2026-04-23 19:57 58.56427 32.69142 20886 ft 368 kts 326°
2026-04-23 19:57 58.58377 32.66042 19090 ft 361 kts 325°
2026-04-23 19:57 58.59650 32.64020 17963 ft 357 kts 325°
2026-04-23 19:57 58.62176 32.60000 15598 ft 347 kts 324°
2026-04-23 19:58 58.64019 32.57062 14542 ft 338 kts 324°
2026-04-23 19:58 58.65865 32.54120 14175 ft 346 kts 324°
2026-04-23 19:58 58.67719 32.51160 13863 ft 347 kts 324°
2026-04-23 19:58 58.69564 32.48206 13776 ft 338 kts 324°
2026-04-23 19:59 58.71302 32.45402 13761 ft 314 kts 324°
2026-04-23 19:59 58.72920 32.42787 13751 ft 293 kts 324°
2026-04-23 19:59 58.74439 32.40334 13759 ft 280 kts 324°
2026-04-23 19:59 58.75905 32.37970 13760 ft 278 kts 324°
2026-04-23 20:00 58.77403 32.35540 13760 ft 277 kts 324°
2026-04-23 20:00 58.78858 32.33174 13764 ft 277 kts 324°
2026-04-23 20:00 58.80334 32.30777 13764 ft 277 kts 324°
2026-04-23 20:00 58.81810 32.28379 13761 ft 277 kts 324°
2026-04-23 20:01 58.83285 32.25981 13764 ft 278 kts 324°
2026-04-23 20:01 58.84761 32.23579 13765 ft 277 kts 324°
2026-04-23 20:01 58.86237 32.21176 13765 ft 277 kts 324°
2026-04-23 20:01 58.87713 32.18771 13763 ft 277 kts 324°
2026-04-23 20:02 58.89189 32.16363 13762 ft 277 kts 324°
2026-04-23 20:02 58.90664 32.13955 13761 ft 278 kts 324°
2026-04-23 20:02 58.92137 32.11546 13764 ft 278 kts 324°
2026-04-23 20:02 58.93613 32.09130 13760 ft 278 kts 324°
2026-04-23 20:03 58.95080 32.06725 13755 ft 275 kts 324°
2026-04-23 20:03 58.96542 32.04326 13762 ft 275 kts 324°
2026-04-23 20:03 58.98001 32.01930 13765 ft 275 kts 324°
2026-04-23 20:03 58.99460 31.99532 13764 ft 275 kts 324°
2026-04-23 20:04 59.00918 31.97133 13764 ft 275 kts 324°
2026-04-23 20:04 59.02377 31.94729 13766 ft 275 kts 324°
2026-04-23 20:04 59.03836 31.92322 13767 ft 275 kts 324°
2026-04-23 20:04 59.05292 31.89917 13766 ft 275 kts 324°
2026-04-23 20:05 59.06257 31.88322 13766 ft 275 kts 324°
2026-04-23 20:05 59.08207 31.85095 13768 ft 275 kts 324°
2026-04-23 20:05 59.09664 31.82681 13765 ft 275 kts 324°
2026-04-23 20:05 59.10625 31.81076 13765 ft 275 kts 323°
2026-04-23 20:06 59.12032 31.78539 13766 ft 276 kts 321°
2026-04-23 20:06 59.13413 31.75931 13775 ft 277 kts 321°
2026-04-23 20:06 59.14789 31.73309 13773 ft 277 kts 321°
2026-04-23 20:06 59.16162 31.70691 13742 ft 274 kts 321°
2026-04-23 20:07 59.17528 31.68089 13150 ft 275 kts 320°
2026-04-23 20:07 59.18891 31.65493 12633 ft 273 kts 320°
2026-04-23 20:07 59.20248 31.62907 12138 ft 272 kts 320°
2026-04-23 20:07 59.21598 31.60335 11646 ft 271 kts 320°
2026-04-23 20:08 59.22944 31.57769 11171 ft 270 kts 320°
2026-04-23 20:08 59.24283 31.55213 10705 ft 269 kts 319°
2026-04-23 20:08 59.25618 31.52662 10213 ft 268 kts 319°
2026-04-23 20:08 59.26946 31.50113 9770 ft 267 kts 319°
2026-04-23 20:09 59.28268 31.47566 9296 ft 266 kts 319°
2026-04-23 20:09 59.29581 31.45038 8837 ft 264 kts 319°
2026-04-23 20:09 59.30886 31.42522 8371 ft 262 kts 319°
2026-04-23 20:09 59.32182 31.40025 7924 ft 261 kts 319°
2026-04-23 20:10 59.33469 31.37543 7487 ft 259 kts 319°
2026-04-23 20:10 59.34748 31.35076 7051 ft 257 kts 319°
2026-04-23 20:10 59.36019 31.32622 6639 ft 256 kts 319°
2026-04-23 20:10 59.37283 31.30180 6220 ft 254 kts 319°
2026-04-23 20:11 59.38535 31.27758 5809 ft 253 kts 319°
2026-04-23 20:11 59.39785 31.25341 5377 ft 251 kts 319°
2026-04-23 20:11 59.41026 31.22938 4977 ft 250 kts 318°
2026-04-23 20:11 59.42251 31.20557 4804 ft 245 kts 318°
2026-04-23 20:12 59.43425 31.18256 4763 ft 230 kts 318°
2026-04-23 20:12 59.44518 31.16113 4781 ft 214 kts 319°
2026-04-23 20:12 59.45545 31.14102 4750 ft 204 kts 319°
2026-04-23 20:12 59.46536 31.12171 4890 ft 201 kts 319°
2026-04-23 20:13 59.47537 31.10225 4997 ft 202 kts 319°
2026-04-23 20:13 59.48536 31.08282 4999 ft 202 kts 319°
2026-04-23 20:13 59.49535 31.06336 5008 ft 201 kts 319°
2026-04-23 20:13 59.50528 31.04401 4753 ft 201 kts 319°
2026-04-23 20:14 59.51519 31.02468 4511 ft 198 kts 319°
2026-04-23 20:14 59.52480 31.00588 4126 ft 194 kts 319°
2026-04-23 20:14 59.53433 30.98726 3678 ft 192 kts 319°
2026-04-23 20:14 59.54382 30.96873 3291 ft 192 kts 319°
2026-04-23 20:15 59.55329 30.95020 2904 ft 192 kts 319°
2026-04-23 20:15 59.56271 30.93175 2558 ft 189 kts 319°
2026-04-23 20:15 59.57203 30.91348 2500 ft 190 kts 319°
2026-04-23 20:15 59.58137 30.89518 2496 ft 191 kts 319°
2026-04-23 20:16 59.59084 30.87660 2514 ft 190 kts 319°
2026-04-23 20:16 59.60103 30.86042 2475 ft 186 kts 336°
2026-04-23 20:16 59.61261 30.84872 2525 ft 188 kts 333°
2026-04-23 20:16 59.62399 30.83602 2505 ft 187 kts 332°
2026-04-23 20:17 59.63534 30.82329 2483 ft 187 kts 333°
2026-04-23 20:17 59.64573 30.80782 2470 ft 192 kts 307°
2026-04-23 20:17 59.64860 30.78236 2469 ft 200 kts 263°
2026-04-23 20:17 59.64115 30.75904 2496 ft 211 kts 218°
2026-04-23 20:18 59.62707 30.75139 2495 ft 216 kts 173°
2026-04-23 20:18 59.61391 30.76413 2496 ft 214 kts 129°
2026-04-23 20:18 59.60863 30.78998 2504 ft 201 kts 84°
2026-04-23 20:18 59.61363 30.81401 2504 ft 188 kts 42°
2026-04-23 20:19 59.62248 30.83354 2523 ft 193 kts 48°
2026-04-23 20:19 59.63218 30.85096 2465 ft 187 kts 22°
2026-04-23 20:19 59.64471 30.85325 2505 ft 185 kts 345°
2026-04-23 20:19 59.65545 30.83945 2486 ft 189 kts 315°
2026-04-23 20:20 59.66377 30.81892 2508 ft 192 kts 311°
2026-04-23 20:20 59.67201 30.79865 2497 ft 191 kts 311°
2026-04-23 20:20 59.68039 30.77818 2502 ft 192 kts 311°
2026-04-23 20:20 59.68879 30.75768 2490 ft 191 kts 311°
2026-04-23 20:21 59.69682 30.73802 2498 ft 176 kts 311°
2026-04-23 20:21 59.70362 30.71834 2478 ft 173 kts 302°
2026-04-23 20:21 59.70932 30.69731 2528 ft 174 kts 302°
2026-04-23 20:21 59.71494 30.67645 2487 ft 167 kts 302°
2026-04-23 20:22 59.72021 30.65665 2486 ft 159 kts 301°
2026-04-23 20:22 59.72517 30.63787 2496 ft 150 kts 301°
2026-04-23 20:22 59.72998 30.61969 2503 ft 149 kts 302°
2026-04-23 20:22 59.73470 30.60165 2496 ft 147 kts 301°
2026-04-23 20:23 59.73939 30.58376 2493 ft 146 kts 301°
2026-04-23 20:23 59.74406 30.56584 2494 ft 146 kts 302°
2026-04-23 20:23 59.74873 30.54785 2497 ft 147 kts 301°
2026-04-23 20:23 59.75338 30.52985 2541 ft 146 kts 301°
2026-04-23 20:24 59.75808 30.51190 2443 ft 147 kts 301°
2026-04-23 20:24 59.76170 30.49287 2239 ft 148 kts 290°
2026-04-23 20:24 59.76390 30.47288 2203 ft 149 kts 285°
2026-04-23 20:24 59.76552 30.45254 1958 ft 148 kts 284°
2026-04-23 20:25 59.76756 30.43254 1690 ft 147 kts 287°
2026-04-23 20:25 59.77016 30.41297 1437 ft 146 kts 289°
2026-04-23 20:25 59.77311 30.39356 1112 ft 147 kts 290°
2026-04-23 20:25 59.77653 30.37438 932 ft 149 kts 290°
2026-04-23 20:26 59.77972 30.35475 766 ft 150 kts 287°
2026-04-23 20:26 59.78246 30.33479 582 ft 150 kts 287°
2026-04-23 20:26 59.78547 30.31503 404 ft 149 kts 288°
2026-04-23 20:26 59.78847 30.29524 255 ft 149 kts 288°
2026-04-23 20:27 59.79134 30.27555 104 ft 144 kts 287°
2026-04-23 20:27 59.79386 30.25886 96 ft 109 kts 286°
2026-04-23 20:27 59.79578 30.24612 95 ft 85 kts 287°
2026-04-23 20:27 59.79706 30.23759 92 ft 52 kts 287°
2026-04-23 20:28 59.79815 30.23255 95 ft 29 kts 305°
2026-04-23 20:28 59.79892 30.23082 94 ft 9 kts 317°
2026-04-23 20:28 59.79902 30.23065 94 ft 1 kts 321°
2026-04-23 20:28 59.79911 30.23051 93 ft 2 kts 321°
2026-04-23 20:29 59.79929 30.23023 93 ft 4 kts 321°
2026-04-23 20:29 59.79940 30.23012 92 ft 1 kts 342°
2026-04-23 20:29 59.79953 30.23023 93 ft 5 kts 25°
2026-04-23 20:29 59.79966 30.23128 93 ft 11 kts 95°
2026-04-23 20:30 59.79952 30.23277 92 ft 10 kts 105°
2026-04-23 20:30 59.79911 30.23563 92 ft 12 kts 106°
2026-04-23 20:30 59.79887 30.23724 91 ft 12 kts 106°
2026-04-23 20:31 59.79863 30.23887 92 ft 12 kts 106°
2026-04-23 20:31 59.79840 30.24047 94 ft 12 kts 106°
2026-04-23 20:31 59.79825 30.24148 93 ft 0 kts 106°
2026-04-23 20:32 59.79807 30.24267 95 ft 11 kts 106°
2026-04-23 20:32 59.79784 30.24422 94 ft 14 kts 106°
2026-04-23 20:32 59.79747 30.24674 94 ft 22 kts 106°
2026-04-23 20:32 59.79704 30.24969 92 ft 22 kts 105°
2026-04-23 20:33 59.79661 30.25253 94 ft 21 kts 107°
2026-04-23 20:33 59.79621 30.25527 96 ft 20 kts 106°
2026-04-23 20:33 59.79583 30.25786 95 ft 19 kts 107°
2026-04-23 20:33 59.79544 30.26039 96 ft 19 kts 107°
2026-04-23 20:34 59.79511 30.26256 97 ft 14 kts 104°
2026-04-23 20:34 59.79516 30.26320 96 ft 3 kts 60°
2026-04-23 20:34 59.79553 30.26378 94 ft 11 kts 26°
2026-04-23 20:34 59.79631 30.26428 94 ft 12 kts 17°
2026-04-23 20:35 59.79710 30.26476 95 ft 12 kts 17°
2026-04-23 20:35 59.79787 30.26522 95 ft 12 kts 17°
2026-04-23 20:35 59.79863 30.26567 95 ft 10 kts 16°
2026-04-23 20:35 59.79926 30.26604 93 ft 6 kts 16°
2026-04-23 20:36 59.79966 30.26627 95 ft 6 kts 16°
2026-04-23 20:36 59.80008 30.26651 94 ft 6 kts 16°
2026-04-23 20:36 59.80021 30.26659 93 ft 0 kts 19°
2026-04-23 20:36 59.80035 30.26680 94 ft 1 kts 47°
2026-04-23 20:37 59.80039 30.26732 96 ft 6 kts 88°
2026-04-23 20:37 59.80035 30.26788 93 ft 1 kts 102°
2026-04-23 20:37 59.80031 30.26823 94 ft 0 kts 103°
2026-04-23 20:37 59.80030 30.26832 94 ft 0 kts 104°